TimeCEST,TemperatureF,Dew PointF,Humidity,Sea Level PressureIn,VisibilityMPH,Wind Direction,Wind SpeedMPH,Gust SpeedMPH,PrecipitationIn,Events,Conditions,WindDirDegrees,DateUTC
12:25 AM,66.2,59.0,78,29.98,6.2,SW,17.3,-,N/A,Rain,Light Rain,220,2013-07-29 22:25:00
12:55 AM,66.2,57.2,73,29.98,6.2,SW,16.1,-,N/A,,Unknown,230,2013-07-29 22:55:00
1:25 AM,66.2,57.2,73,29.98,6.2,SW,15.0,26.5,N/A,,Unknown,220,2013-07-29 23:25:00
1:55 AM,64.4,57.2,77,29.98,6.2,SW,15.0,-,N/A,,Partly Cloudy,220,2013-07-29 23:55:00
2:00 AM,64,57,71,29.99,25,SW,15.7,,,,Partly Cloudy,220,2013-07-30 00:00:00
2:25 AM,64.4,55.4,73,29.98,6.2,SW,17.3,-,N/A,,Unknown,220,2013-07-30 00:25:00
2:55 AM,62.6,55.4,77,29.98,6.2,SW,13.8,-,N/A,,Unknown,230,2013-07-30 00:55:00
3:25 AM,62.6,55.4,77,29.98,6.2,SW,15.0,-,N/A,,Partly Cloudy,230,2013-07-30 01:25:00
3:55 AM,62.6,57.2,82,29.98,6.2,SW,13.8,-,N/A,,Unknown,230,2013-07-30 01:55:00
4:25 AM,62.6,57.2,82,29.98,6.2,SW,13.8,-,N/A,,Mostly Cloudy,230,2013-07-30 02:25:00
4:55 AM,62.6,57.2,82,29.98,6.2,SW,9.2,-,N/A,,Overcast,220,2013-07-30 02:55:00
5:00 AM,62,58,81,30.00,17,SW,8.9,,,,Scattered Clouds,220,2013-07-30 03:00:00
5:25 AM,62.6,59.0,88,29.98,6.2,SW,12.7,-,N/A,,Mostly Cloudy,220,2013-07-30 03:25:00
5:55 AM,62.6,57.2,82,29.98,6.2,SW,10.4,-,N/A,,Scattered Clouds,230,2013-07-30 03:55:00
6:25 AM,62.6,59.0,88,30.01,6.2,SW,10.4,-,N/A,,Scattered Clouds,220,2013-07-30 04:25:00
6:55 AM,62.6,59.0,88,30.01,6.2,SW,12.7,-,N/A,,Scattered Clouds,220,2013-07-30 04:55:00
7:25 AM,62.6,59.0,88,30.01,6.2,SSW,12.7,-,N/A,,Mostly Cloudy,210,2013-07-30 05:25:00
7:55 AM,62.6,57.2,82,30.01,6.2,SW,13.8,-,N/A,,Partly Cloudy,220,2013-07-30 05:55:00
8:00 AM,63,58,78,30.01,12,SW,17.9,,,,Partly Cloudy,220,2013-07-30 06:00:00
8:25 AM,62.6,57.2,82,30.01,6.2,SW,15.0,-,N/A,,Mostly Cloudy,220,2013-07-30 06:25:00
8:55 AM,62.6,59.0,88,30.01,6.2,SW,15.0,-,N/A,,Overcast,220,2013-07-30 06:55:00
9:25 AM,64.4,59.0,83,30.01,6.2,SW,13.8,-,N/A,,Mostly Cloudy,220,2013-07-30 07:25:00
9:55 AM,64.4,57.2,77,30.01,6.2,SW,13.8,-,N/A,,Mostly Cloudy,220,2013-07-30 07:55:00
10:25 AM,66.2,57.2,73,30.01,6.2,SW,16.1,-,N/A,,Mostly Cloudy,220,2013-07-30 08:25:00
10:55 AM,68.0,57.2,68,30.01,6.2,SW,18.4,-,N/A,,Scattered Clouds,220,2013-07-30 08:55:00
11:00 AM,67,57,63,30.02,12,SW,15.7,,,,Partly Cloudy,220,2013-07-30 09:00:00
11:25 AM,68.0,57.2,68,30.01,6.2,SW,15.0,-,N/A,,Mostly Cloudy,230,2013-07-30 09:25:00
11:55 AM,68.0,57.2,68,30.01,6.2,SW,17.3,-,N/A,,Mostly Cloudy,230,2013-07-30 09:55:00
12:25 PM,66.2,57.2,73,30.01,6.2,SW,15.0,-,N/A,,Mostly Cloudy,230,2013-07-30 10:25:00
12:55 PM,68.0,57.2,68,30.01,6.2,SW,16.1,-,N/A,,Mostly Cloudy,220,2013-07-30 10:55:00
1:25 PM,68.0,55.4,64,30.01,6.2,SW,16.1,-,N/A,,Scattered Clouds,220,2013-07-30 11:25:00
1:55 PM,68.0,57.2,68,30.01,6.2,SW,12.7,-,N/A,,Mostly Cloudy,220,2013-07-30 11:55:00
2:00 PM,67,57,61,30.01,12,SSW,13.4,,,,Partly Cloudy,210,2013-07-30 12:00:00
2:25 PM,69.8,57.2,64,30.01,6.2,SSW,16.1,-,N/A,,Mostly Cloudy,210,2013-07-30 12:25:00
2:55 PM,68.0,55.4,64,29.98,6.2,SW,16.1,-,N/A,,Mostly Cloudy,220,2013-07-30 12:55:00
3:25 PM,69.8,57.2,64,29.98,6.2,SSW,16.1,-,N/A,,Mostly Cloudy,200,2013-07-30 13:25:00
3:55 PM,68.0,57.2,68,29.98,6.2,SSW,24.2,-,N/A,,Mostly Cloudy,210,2013-07-30 13:55:00
4:25 PM,69.8,57.2,64,29.98,6.2,SSW,17.3,-,N/A,,Mostly Cloudy,210,2013-07-30 14:25:00
4:55 PM,68.0,55.4,64,29.98,6.2,SSW,18.4,-,N/A,,Overcast,210,2013-07-30 14:55:00
5:00 PM,68,56,56,29.98,17,SSW,22.4,,,,Overcast,210,2013-07-30 15:00:00
5:25 PM,68.0,57.2,68,29.95,6.2,SSW,17.3,-,N/A,Rain,Light Rain,210,2013-07-30 15:25:00
5:55 PM,66.2,59.0,78,29.95,6.2,SSW,18.4,-,N/A,,Overcast,200,2013-07-30 15:55:00
6:25 PM,64.4,60.8,88,29.95,6.2,South,15.0,-,N/A,,Mostly Cloudy,180,2013-07-30 16:25:00
6:55 PM,64.4,59.0,83,29.92,6.2,South,12.7,27.6,N/A,,Overcast,180,2013-07-30 16:55:00
7:25 PM,62.6,60.8,94,29.92,-9999.0,South,17.3,-,N/A,Rain,Light Rain,190,2013-07-30 17:25:00
7:55 PM,62.6,60.8,94,29.89,3.7,South,13.8,-,N/A,Rain,Light Rain Showers,190,2013-07-30 17:55:00
8:25 PM,62.6,62.6,100,29.89,3.1,South,11.5,-,N/A,Rain,Light Rain,190,2013-07-30 18:25:00
8:55 PM,62.6,62.6,100,29.89,1.9,South,13.8,-,N/A,,Drizzle,190,2013-07-30 18:55:00
9:25 PM,64.4,62.6,94,29.86,-9999.0,SSW,13.8,-,N/A,Rain,Heavy Drizzle,200,2013-07-30 19:25:00
9:55 PM,64.4,62.6,94,29.89,-9999.0,WSW,16.1,-,N/A,Rain,Drizzle,240,2013-07-30 19:55:00
10:25 PM,64.4,62.6,94,29.89,6.2,WSW,17.3,-,N/A,,Mostly Cloudy,240,2013-07-30 20:25:00
10:55 PM,64.4,62.6,94,29.89,6.2,WSW,13.8,-,N/A,,Light Drizzle,250,2013-07-30 20:55:00
11:00 PM,64,63,94,29.90,8,WSW,15.7,,,Rain,Light Drizzle,250,2013-07-30 21:00:00
11:25 PM,64.4,62.6,94,29.89,6.2,WSW,15.0,-,N/A,,Mostly Cloudy,240,2013-07-30 21:25:00
11:55 PM,64.4,62.6,94,29.89,6.2,WSW,12.7,-,N/A,,Overcast,250,2013-07-30 21:55:00